Total_Precipitation_Accumulation
1.88 2.05 2.07 2.17 2.10 2.24 2.18 1.96 1.69 1.59 1.50 1.28 1.22 1.24 1.19 1.16 1.21 1.33 1.52 1.58 1.53 1.71 2.02 2.20 2.11 1.99 1.97 1.96 1.98 1.96 1.92 1.84 1.75 1.53 1.37 1.23 1.14 1.11 1.11 1.13 1.08 1.00 0.97
2.24 2.33 2.38 2.45 2.31 2.33 2.35 2.22 1.94 1.80 1.70 1.53 1.36 1.26 1.24 1.39 1.40 1.34 1.55 1.67 1.58 1.57 1.84 2.20 2.38 2.49 2.55 2.55 2.41 2.17 2.09 2.03 2.02 1.87 1.67 1.47 1.36 1.29 1.23 1.24 1.22 1.12 1.08
2.60 2.61 2.77 2.80 2.68 2.61 2.57 2.48 2.33 2.07 1.96 1.87 1.77 1.60 1.49 1.50 1.62 1.68 1.70 1.80 1.85 1.78 1.87 2.10 2.33 2.53 2.67 2.81 2.68 2.47 2.32 2.23 2.24 2.19 2.02 1.81 1.64 1.53 1.46 1.39 1.33 1.27 1.18
2.96 3.10 3.05 2.92 2.83 2.74 2.70 2.81 2.64 2.37 2.27 2.29 2.18 1.90 1.62 1.65 1.75 1.82 1.81 1.88 2.02 1.96 1.98 1.94 2.04 2.23 2.44 2.68 2.75 2.77 2.69 2.62 2.52 2.43 2.32 2.21 2.06 1.90 1.77 1.70 1.58 1.44 1.32
3.26 3.40 3.35 3.16 2.94 2.84 2.86 2.71 2.73 2.62 2.63 2.58 2.19 1.95 1.69 1.65 1.73 1.75 1.80 1.87 2.05 2.13 2.15 1.98 2.04 2.26 2.43 2.64 2.83 2.99 3.06 3.06 2.92 2.82 2.70 2.62 2.54 2.32 2.11 1.96 1.83 1.71 1.59
3.68 3.70 3.59 3.43 3.26 3.13 3.07 2.95 2.89 2.85 2.70 2.56 2.14 1.93 1.75 1.61 1.62 1.68 1.72 1.80 1.86 1.89 1.98 2.01 2.07 2.02 2.18 2.41 2.68 2.95 3.17 3.34 3.23 3.01 2.87 2.83 2.78 2.64 2.48 2.31 2.12 2.00 1.89
4.13 4.09 3.98 3.81 3.60 3.38 3.20 3.03 2.89 2.75 2.56 2.42 2.27 2.06 1.77 1.54 1.58 1.61 1.56 1.63 1.72 1.70 1.74 1.81 1.97 1.94 1.87 2.10 2.21 2.57 2.95 3.32 3.43 3.30 3.17 3.15 3.10 2.93 2.72 2.52 2.38 2.25 2.11
4.63 4.48 4.38 4.14 3.85 3.59 3.35 3.12 2.88 2.65 2.46 2.33 2.30 2.35 2.09 1.81 1.48 1.30 1.32 1.35 1.39 1.42 1.50 1.60 1.63 1.67 1.67 1.76 1.82 2.02 2.32 2.62 2.93 3.08 3.12 3.12 3.11 3.03 2.88 2.69 2.54 2.46 2.45
4.68 4.35 4.10 4.01 3.78 3.42 3.20 3.02 2.81 2.62 2.41 2.27 2.18 2.32 2.26 2.04 1.69 1.48 1.30 1.20 1.23 1.31 1.37 1.47 1.50 1.43 1.39 1.42 1.50 1.66 1.79 1.89 2.21 2.54 2.72 2.76 2.76 2.74 2.74 2.74 2.71 2.59 2.51
4.33 4.02 3.74 3.46 3.22 2.96 2.74 2.58 2.49 2.45 2.36 2.21 2.15 1.99 1.80 1.68 1.73 1.61 1.44 1.34 1.30 1.31 1.27 1.23 1.26 1.27 1.26 1.28 1.38 1.48 1.54 1.63 1.87 2.05 2.22 2.30 2.34 2.39 2.41 2.39 2.43 2.43 2.46
3.62 3.27 2.99 2.73 2.51 2.31 2.13 1.97 1.94 2.06 2.15 2.13 2.12 2.08 1.91 1.74 1.67 1.62 1.55 1.51 1.49 1.44 1.32 1.23 1.18 1.15 1.14 1.15 1.21 1.37 1.47 1.45 1.52 1.63 1.76 1.86 1.91 2.05 2.15 2.17 2.18 2.26 2.40
2.91 2.58 2.30 2.09 1.87 1.68 1.56 1.51 1.49 1.54 1.67 1.79 1.85 1.88 1.88 1.92 1.89 1.82 1.73 1.69 1.65 1.57 1.44 1.33 1.25 1.21 1.18 1.18 1.28 1.48 1.39 1.42 1.46 1.43 1.42 1.49 1.57 1.67 1.82 1.97 2.09 2.20 2.39
2.07 1.84 1.63 1.48 1.33 1.25 1.22 1.19 1.21 1.28 1.32 1.39 1.52 1.64 1.70 1.73 1.74 1.84 1.94 1.86 1.74 1.54 1.40 1.34 1.29 1.23 1.21 1.20 1.23 1.29 1.16 1.17 1.22 1.23 1.25 1.29 1.34 1.43 1.51 1.61 1.73 1.85 1.99
1.26 1.12 1.04 0.98 0.95 0.95 0.91 0.91 0.93 1.00 1.06 1.11 1.15 1.31 1.46 1.46 1.40 1.49 1.70 1.72 1.70 1.58 1.37 1.29 1.22 1.17 1.14 1.08 1.14 1.11 1.01 1.09 1.07 1.04 1.00 0.99 1.01 1.06 1.15 1.23 1.34 1.43 1.52
0.92 0.83 0.79 0.77 0.75 0.76 0.75 0.74 0.72 0.72 0.79 0.88 0.91 1.01 1.13 1.17 1.12 1.14 1.25 1.38 1.49 1.53 1.36 1.17 1.11 1.08 1.04 0.99 1.07 0.88 0.90 1.00 0.96 0.93 0.88 0.84 0.84 0.85 0.89 0.92 0.95 1.01 1.12
0.75 0.68 0.59 0.55 0.53 0.52 0.56 0.62 0.61 0.58 0.60 0.64 0.68 0.75 0.82 0.85 0.88 0.92 0.99 1.09 1.24 1.37 1.36 1.08 0.95 0.93 0.90 0.82 0.91 0.79 0.83 0.84 0.76 0.74 0.71 0.69 0.67 0.67 0.68 0.70 0.72 0.74 0.83
0.52 0.49 0.45 0.42 0.39 0.38 0.43 0.52 0.54 0.53 0.55 0.56 0.56 0.57 0.62 0.65 0.74 0.75 0.78 0.84 0.96 1.13 1.24 1.07 0.90 0.83 0.81 0.83 0.84 0.80 0.72 0.62 0.58 0.61 0.59 0.60 0.58 0.55 0.56 0.56 0.56 0.58 0.61
0.43 0.42 0.40 0.38 0.34 0.35 0.40 0.45 0.47 0.47 0.51 0.53 0.53 0.51 0.53 0.57 0.65 0.68 0.71 0.75 0.83 0.96 1.07 1.09 0.96 0.84 0.76 0.75 0.75 0.75 0.59 0.48 0.47 0.51 0.49 0.48 0.49 0.48 0.49 0.49 0.48 0.46 0.43
0.43 0.40 0.41 0.39 0.36 0.34 0.34 0.35 0.38 0.44 0.47 0.49 0.47 0.45 0.47 0.49 0.54 0.57 0.63 0.68 0.74 0.79 0.91 0.94 0.84 0.75 0.65 0.60 0.69 0.72 0.65 0.62 0.42 0.36 0.37 0.37 0.39 0.38 0.36 0.35 0.35 0.35 0.31
0.44 0.41 0.39 0.37 0.34 0.30 0.29 0.29 0.30 0.36 0.43 0.42 0.37 0.38 0.42 0.41 0.43 0.48 0.52 0.61 0.71 0.80 0.84 0.84 0.75 0.65 0.62 0.59 0.72 0.83 0.77 0.65 0.51 0.32 0.34 0.33 0.33 0.32 0.33 0.35 0.30 0.30 0.29
0.43 0.41 0.38 0.37 0.34 0.30 0.25 0.25 0.27 0.29 0.38 0.38 0.35 0.34 0.33 0.32 0.35 0.37 0.40 0.49 0.64 0.78 0.84 0.87 0.79 0.68 0.66 0.74 0.81 0.79 0.75 0.63 0.51 0.39 0.42 0.41 0.44 0.58 0.77 0.81 0.59 0.37 0.31
0.40 0.40 0.42 0.39 0.35 0.30 0.29 0.26 0.24 0.28 0.33 0.37 0.39 0.36 0.32 0.29 0.27 0.28 0.31 0.37 0.50 0.66 0.83 0.94 0.90 0.83 0.77 0.83 0.90 0.87 0.90 0.85 0.74 0.51 0.52 0.51 0.57 0.94 1.32 1.49 1.07 0.54 0.40
0.43 0.43 0.43 0.41 0.39 0.33 0.27 0.25 0.22 0.25 0.32 0.43 0.47 0.45 0.36 0.31 0.37 0.39 0.34 0.30 0.36 0.46 0.68 0.92 1.04 0.96 0.89 0.95 1.07 1.05 1.03 1.00 0.91 0.70 0.72 0.73 0.74 1.02 1.11 1.22 1.16 0.76 0.61
0.45 0.47 0.46 0.41 0.42 0.34 0.28 0.26 0.26 0.30 0.34 0.41 0.45 0.45 0.50 0.49 0.41 0.39 0.35 0.39 0.49 0.57 0.64 0.72 0.92 0.94 0.83 0.84 0.98 1.02 0.97 0.93 0.88 0.82 0.85 0.92 0.84 0.95 0.92 1.18 1.37 1.20 1.02
0.49 0.48 0.45 0.43 0.44 0.40 0.34 0.34 0.36 0.42 0.39 0.39 0.38 0.37 0.42 0.46 0.39 0.36 0.39 0.50 0.58 0.63 0.54 0.63 0.72 0.82 0.87 0.82 0.79 0.83 0.98 1.06 1.08 0.91 0.83 0.92 0.95 0.97 1.06 1.34 1.40 1.39 1.29
0.50 0.47 0.45 0.44 0.44 0.42 0.31 0.31 0.36 0.41 0.41 0.39 0.40 0.42 0.39 0.35 0.34 0.35 0.42 0.55 0.66 0.67 0.72 0.88 1.04 1.12 1.08 1.00 0.83 0.87 1.08 1.18 1.21 1.14 0.87 0.91 1.00 1.11 1.35 1.48 1.43 1.31 1.28